View from above orbital plane
|
View from above satellite
|
Ground track
|
The orbit data is extracted from the following two-line orbital elements,
1 25520U 98064B 21023.27625602 .00000793 00000-0 19147-4 0 9994
2 25520 28.4376 10.9440 0004868 211.5860 148.4443 15.29665642235625
Epoch (UTC): | 23 January 2021 06:37:48 |
Eccentricity: | 0.0004868 |
inclination: | 28.4376° |
perigee height: | 473 km |
apogee height: | 480 km |
right ascension of ascending node: | 10.9440° |
argument of perigee: | 211.5860° |
revolutions per day: | 15.29665642 |
mean anomaly at epoch: | 148.4443° |
orbit number at epoch: | 23562 |
The dashed part of the orbit path shows where the satellite is in the earth's shadow,
|
|